Regional Weather Roundup
Issued by NWS

Home | Current Version | Previous Version | Text Only | Print | Product List | Glossary Off
Versions: 1 2 3 4 5 6 7 8 9 10 11 12 13 14 15 16 17 18 19 20 21 22 23 24 25 26 27 28 29 30 31 32 33 34 35 36 37 38 39 40 41 42 43 44 45 46 47 48 49 50

000
ASUS45 KCYS 170810
RWRWY

WYOMING REGIONAL WEATHER ROUNDUP
NATIONAL WEATHER SERVICE CHEYENNE WY
200 AM MDT THU AUG 17 2017

NOTE:  "FAIR" INDICATES FEW OR NO CLOUDS BELOW 12,000 FEET
WITH NO SIGNIFICANT WEATHER AND/OR OBSTRUCTIONS TO VISIBILITY.

WYZ001-170900-
YELLOWSTONE NATIONAL PARK

CITY           SKY/WX    TMP DP  RH WIND       PRES   REMARKS
LK YELLOWSTONE   N/A     43  39  86 CALM      30.26F
W YELLOWSTONE  NOT AVBL

$$
WYZ002>013-054>058-071-098>099-170900-
NORTHERN WYOMING

CITY           SKY/WX    TMP DP  RH WIND       PRES   REMARKS
JACKSON        FAIR      43  35  73 N8        30.20S
CODY           FAIR      64  40  41 S7        30.04F
GREYBULL       FAIR      65  43  44 CALM      29.97S
WORLAND        FAIR      63  42  46 E6        29.97F
SHERIDAN       FAIR      59  45  59 CALM      29.95S
BUFFALO        FAIR      66  35  31 VRB5      30.02F
GILLETTE       FAIR      64  39  39 S17       29.98F
HULETT         FAIR      68  41  37 S14G20    30.00F
NEWCASTLE      FAIR      63  43  48 E17       30.04S

$$
WYZ014>020-022>026-101>103-170900-
CENTRAL WYOMING

CITY           SKY/WX    TMP DP  RH WIND       PRES   REMARKS
BIG PINEY      FAIR      43  38  82 E5        30.24F
PINEDALE       FAIR      41  36  81 NW6       30.26S
DUBOIS         FAIR      46  32  57 NW15      30.22S
LANDER           N/A    N/A N/A N/A MISG      30.09S
RIVERTON       FAIR      63  43  48 W12       30.09F
CASPER         FAIR      58  42  55 W8        30.08S
DOUGLAS        FAIR      53  43  68 E6        30.07F

$$
WYZ021-027>030-104>119-170900-
SOUTHERN WYOMING

CITY           SKY/WX    TMP DP  RH WIND       PRES   REMARKS
EVANSTON       FAIR      55  38  52 S7        30.26S
KEMMERER         N/A     54  36  50 NW7       30.26F
FORT BRIDGER   FAIR      60  35  39 SW9       30.28S
ROCK SPRINGS   FAIR      59  37  44 SW9       30.21F
RAWLINS        FAIR      52  42  69 CALM      30.21S
SARATOGA       FAIR      52  41  66 S12       30.24F
LARAMIE        FAIR      46  40  79 S9        30.24F
CHEYENNE       FAIR      54  44  69 SW6       30.18F
TORRINGTON     FAIR      53  49  86 SE6       30.05F
PINE BLUFFS    FAIR      50  48  93 CALM      30.14F

$$



USA.gov is the U.S. government's official web portal to all federal, state and local government web resources and services.